Weather History for KBEH - January, 2014

Change the Weather History Date:

Thursday, January 23, 2014

  Actual Average Record
Temperature  
Mean Temperature 12 °F -  
Max Temperature 16 °F 35 °F 56 °F (1967)
Min Temperature 8 °F 20 °F -9 °F (2011)
Degree Days  
Heating Degree Days 53    
Moisture  
Dew Point 7 °F    
Average Humidity 81    
Maximum Humidity 100    
Minimum Humidity 59    
Precipitation  
Precipitation 0.08 in - - ()
Sea Level Pressure  
Sea Level Pressure 30.29 in    
Wind  
Wind Speed 13 mph (WNW)    
Max Wind Speed 22 mph    
Max Gust Speed 33 mph    
Visibility 3 miles    
Events Fog , Snow    
Averages and records for this station are not official NWS values.
T = Trace of Precipitation, MM = Missing Value Source: NWS Daily Summary

Daily Weather History Graph

Daily Weather History Graph

Search for Another Location

Airport or City:

Trip Planner

Search our weather history database for the weather conditions in past years. The results will help you decide how hot, cold, wet, or windy it might be!

Date:

Astronomy

Jan. 23, 2014 Rise Set
Actual Time 8:06 AM EST 5:48 PM EST
Civil Twilight 7:36 AM EST 6:19 PM EST
Nautical Twilight 7:02 AM EST 6:53 PM EST
Astronomical Twilight 6:29 AM EST 7:26 PM EST
Moon 12:27 AM EST (1/23) 11:33 AM EST (1/23)
Length of Visible Light 10h 42m
Length of Day
9h 42m
Waning Gibbous, 55% of the Moon is Illuminated
Jan 23
Waning Gibbous
Jan 24
Last Quarter
Jan 30
New
Feb 6
First Quarter
Feb 14
Full

Hourly Weather History & Observations

Time (EST) Temp. Windchill Dew Point Humidity Pressure Visibility Wind Dir Wind Speed Gust Speed Precip Events Conditions
12:01 AM 10.4 °F -7.2 °F 6.8 °F 85% 30.02 in 0.5 mi WNW 17.3 mph 27.6 mph 0.00 in Fog , Snow Snow
12:24 AM 10.4 °F -5.4 °F 5.0 °F 79% 30.02 in 1.0 mi WNW 13.8 mph 27.6 mph 0.00 in Snow Light Snow
12:27 AM 10.4 °F -6.0 °F 5.0 °F 79% 30.02 in 1.5 mi WNW 15.0 mph 29.9 mph 0.00 in Snow Light Snow
12:34 AM 10.4 °F -5.4 °F 5.0 °F 79% 30.03 in 0.8 mi WNW 13.8 mph 29.9 mph 0.00 in Snow Light Snow
12:43 AM 10.4 °F -7.2 °F 6.8 °F 85% 30.04 in 0.5 mi WNW 17.3 mph 26.5 mph 0.00 in Fog , Snow Snow
12:53 AM 10.0 °F -7.1 °F 7.0 °F 87% 30.08 in 0.5 mi WNW 16.1 mph 23.0 mph 0.00 in Fog , Snow Light Snow
1:22 AM 8.6 °F -7.7 °F 3.2 °F 79% 30.05 in 1.0 mi WNW 13.8 mph 28.8 mph 0.00 in Snow Light Snow
1:53 AM 9.0 °F -7.9 °F 3.0 °F 77% 30.11 in 1.2 mi WNW 15.0 mph 25.3 mph 0.00 in Snow Light Snow
1:57 AM 8.6 °F -7.0 °F 3.2 °F 79% 30.07 in 2.0 mi WNW 12.7 mph 23.0 mph 0.00 in Snow Light Snow
2:07 AM 8.6 °F -9.5 °F 1.4 °F 73% 30.07 in 4.0 mi WNW 17.3 mph 28.8 mph 0.00 in   Haze
2:20 AM 8.6 °F -5.5 °F 1.4 °F 73% 30.08 in 4.0 mi NW 10.4 mph 21.9 mph 0.00 in Snow Light Snow
2:53 AM 9.0 °F -8.5 °F 1.0 °F 70% 30.14 in 3.0 mi WNW 16.1 mph 23.0 mph 0.00 in Snow Light Snow
3:33 AM 8.6 °F -7.7 °F 3.2 °F 79% 30.11 in 1.8 mi WNW 13.8 mph 25.3 mph 0.00 in Snow Light Snow
3:37 AM 8.6 °F -9.5 °F 3.2 °F 79% 30.12 in 0.8 mi WNW 17.3 mph 25.3 mph 0.00 in Snow Light Snow
3:53 AM 9.0 °F -7.9 °F 3.9 °F 80% 30.17 in 0.8 mi WNW 15.0 mph 28.8 mph 0.00 in Snow Light Snow
4:05 AM 8.6 °F -7.0 °F 6.8 °F 92% 30.13 in 0.5 mi WNW 12.7 mph 20.7 mph 0.00 in Fog , Snow Snow
4:17 AM 8.6 °F -8.9 °F 6.8 °F 92% 30.13 in 0.5 mi WNW 16.1 mph 27.6 mph 0.00 in Fog , Snow Snow
4:24 AM 8.6 °F -10.0 °F 5.0 °F 85% 30.13 in 0.8 mi WNW 18.4 mph 27.6 mph 0.00 in Snow Light Snow
4:41 AM 8.6 °F -7.0 °F 3.2 °F 79% 30.13 in 0.5 mi WNW 12.7 mph 29.9 mph 0.00 in Snow Snow
4:53 AM 9.0 °F -7.3 °F 3.9 °F 80% 30.19 in 0.8 mi West 13.8 mph 25.3 mph 0.00 in Snow Light Snow
5:02 AM 8.6 °F -8.9 °F 5.0 °F 85% 30.14 in 1.0 mi WNW 16.1 mph 25.3 mph 0.00 in Snow Light Snow
5:09 AM 8.6 °F -7.0 °F 5.0 °F 85% 30.15 in 0.8 mi WNW 12.7 mph 27.6 mph 0.00 in Snow Light Snow
5:19 AM 8.6 °F -8.3 °F 5.0 °F 85% 30.15 in 0.8 mi WNW 15.0 mph 21.9 mph 0.00 in Snow Light Snow
5:30 AM 8.6 °F -10.0 °F 5.0 °F 85% 30.16 in 0.5 mi WNW 18.4 mph 29.9 mph 0.00 in Fog , Snow Light Snow
5:45 AM 8.6 °F -9.5 °F 5.0 °F 85% 30.17 in 0.5 mi WNW 17.3 mph 27.6 mph 0.00 in Fog , Snow Light Snow
5:53 AM 9.0 °F -8.5 °F 6.1 °F 88% 30.21 in 0.5 mi WNW 16.1 mph 27.6 mph 0.00 in Fog , Snow Snow
6:11 AM 10.4 °F -6.6 °F 6.8 °F 85% 30.18 in 0.2 mi WNW 16.1 mph 27.6 mph 0.00 in Fog , Snow Snow
6:45 AM 10.4 °F -6.0 °F 6.8 °F 85% 30.20 in 0.5 mi WNW 15.0 mph 23.0 mph 0.00 in Fog , Snow Snow
6:53 AM 10.0 °F -8.6 °F 7.0 °F 87% 30.24 in 0.5 mi West 19.6 mph 26.5 mph 0.00 in Fog , Snow Snow
7:08 AM 10.4 °F -6.0 °F 6.8 °F 85% 30.21 in 0.8 mi WNW 15.0 mph 27.6 mph 0.00 in Snow Light Snow
7:26 AM 10.4 °F -6.6 °F 8.6 °F 92% 30.22 in 0.5 mi WNW 16.1 mph 27.6 mph 0.00 in Fog , Snow Snow
7:38 AM 12.2 °F -1.8 °F 8.6 °F 85% 30.22 in 0.8 mi WNW 11.5 mph 21.9 mph 0.00 in Snow Light Snow
7:40 AM 12.2 °F -1.0 °F 8.6 °F 85% 30.22 in 1.0 mi WNW 10.4 mph - 0.00 in Snow Light Snow
7:45 AM 12.2 °F -0.2 °F 6.8 °F 79% 30.22 in 2.0 mi WNW 9.2 mph 17.3 mph 0.00 in Snow Light Snow
7:49 AM 12.2 °F -2.5 °F 6.8 °F 79% 30.22 in 3.0 mi WNW 12.7 mph 18.4 mph 0.00 in Snow Light Snow
7:53 AM 12.9 °F -0.2 °F 6.1 °F 74% 30.26 in 3.0 mi WNW 10.4 mph 18.4 mph 0.00 in Snow Light Snow
8:01 AM 12.2 °F -0.2 °F 8.6 °F 85% 30.23 in 2.0 mi NW 9.2 mph 20.7 mph 0.00 in Snow Light Snow
8:08 AM 12.2 °F -2.5 °F 8.6 °F 85% 30.23 in 1.2 mi WNW 12.7 mph 19.6 mph 0.00 in Snow Light Snow
8:13 AM 12.2 °F -5.3 °F 10.4 °F 92% 30.23 in 0.8 mi WNW 18.4 mph 26.5 mph 0.00 in Snow Light Snow
8:21 AM 12.2 °F -1.8 °F 8.6 °F 85% 30.24 in 0.5 mi WNW 11.5 mph 28.8 mph 0.00 in Fog , Snow Light Snow
8:24 AM 12.2 °F 0.7 °F 8.6 °F 85% 30.24 in 0.8 mi WNW 8.1 mph 28.8 mph 0.00 in Snow Light Snow
8:26 AM 12.2 °F 2.9 °F 6.8 °F 79% 30.23 in 2.0 mi WNW 5.8 mph - 0.00 in Snow Light Snow
8:32 AM 12.2 °F 1.7 °F 3.2 °F 67% 30.24 in 9.0 mi Variable 6.9 mph - 0.00 in   Overcast
8:53 AM 14.0 °F 1.2 °F 5.0 °F 67% 30.29 in 2.5 mi WNW 10.4 mph - 0.00 in Snow Light Snow
8:57 AM 12.2 °F 1.7 °F 6.8 °F 79% 30.25 in 1.2 mi Variable 6.9 mph - 0.00 in Snow Light Snow
9:03 AM 14.0 °F 1.2 °F 8.6 °F 79% 30.25 in 2.0 mi NW 10.4 mph 17.3 mph 0.00 in Snow Light Snow
9:11 AM 14.0 °F -1.4 °F 6.8 °F 73% 30.26 in 1.8 mi NW 15.0 mph 21.9 mph 0.00 in Snow Light Snow
9:20 AM 14.0 °F -0.8 °F 8.6 °F 79% 30.27 in 0.8 mi WNW 13.8 mph 28.8 mph 0.00 in Snow Light Snow
9:29 AM 14.0 °F 1.2 °F 10.4 °F 86% 30.26 in 0.5 mi WNW 10.4 mph 28.8 mph 0.00 in Fog , Snow Light Snow
9:53 AM 12.9 °F -4.4 °F 10.0 °F 88% 30.32 in 0.2 mi WNW 18.4 mph 29.9 mph 0.00 in Fog , Snow Snow
10:01 AM 12.2 °F -5.8 °F 8.6 °F 85% 30.28 in 0.2 mi West 19.6 mph 28.8 mph 0.00 in Fog , Snow Snow
10:09 AM 12.2 °F -6.7 °F 10.4 °F 92% 30.29 in 0.2 mi West 21.9 mph 33.4 mph 0.00 in Fog , Snow Light Snow
10:45 AM 12.2 °F -0.2 °F 12.2 °F 100% 30.32 in 0.2 mi NW 9.2 mph 25.3 mph 0.01 in Fog , Snow Heavy Snow
10:53 AM 12.9 °F -0.9 °F 12.0 °F 96% 30.37 in 0.2 mi West 11.5 mph 19.6 mph 0.02 in Fog , Snow Heavy Snow
11:17 AM 14.0 °F 5.1 °F 10.4 °F 86% 30.34 in 0.8 mi NE 5.8 mph - 0.03 in Snow Light Snow
11:21 AM 14.0 °F 5.1 °F 8.6 °F 79% 30.35 in 1.5 mi NE 5.8 mph - 0.03 in Snow Light Snow
11:23 AM 14.0 °F 6.5 °F 8.6 °F 79% 30.35 in 3.0 mi NE 4.6 mph - 0.03 in Snow Light Snow
11:32 AM 15.8 °F 10.2 °F 8.6 °F 73% 30.35 in 10.0 mi ENE 3.5 mph - 0.03 in   Mostly Cloudy
11:53 AM 16.0 °F 8.8 °F 7.0 °F 68% 30.40 in 10.0 mi Variable 4.6 mph - 0.03 in   Clear
12:53 PM 16.0 °F 4.4 °F 6.1 °F 65% 30.42 in 10.0 mi North 9.2 mph - N/A   Clear
1:53 PM 16.0 °F 6.3 °F 6.1 °F 65% 30.44 in 10.0 mi North 6.9 mph - N/A   Clear
2:53 PM 16.0 °F 6.3 °F 5.0 °F 62% 30.45 in 10.0 mi Variable 6.9 mph - N/A   Clear
3:53 PM 16.0 °F 10.4 °F 3.9 °F 59% 30.47 in 10.0 mi NNE 3.5 mph - N/A   Scattered Clouds
4:53 PM 15.1 °F - 3.9 °F 61% 30.49 in 10.0 mi Calm Calm - N/A   Mostly Cloudy
5:53 PM 15.1 °F - 9.0 °F 77% 30.50 in 8.0 mi Calm Calm - 0.00 in   Overcast
6:17 PM 14.0 °F 6.5 °F 10.4 °F 86% 30.47 in 3.0 mi SW 4.6 mph - 0.00 in Snow Light Snow
6:20 PM 14.0 °F 8.2 °F 10.4 °F 86% 30.47 in 1.5 mi WSW 3.5 mph - 0.00 in Snow Light Snow
6:25 PM 14.0 °F 5.1 °F 10.4 °F 86% 30.47 in 0.8 mi WSW 5.8 mph - 0.01 in Snow Light Snow
6:28 PM 14.0 °F 5.1 °F 10.4 °F 86% 30.47 in 0.5 mi WSW 5.8 mph - 0.01 in Fog , Snow Snow
6:42 PM 14.0 °F 3.9 °F 12.2 °F 93% 30.47 in 0.5 mi SW 6.9 mph - 0.03 in Fog , Snow Snow
6:53 PM 14.0 °F 2.9 °F 12.0 °F 92% 30.52 in 0.8 mi SSW 8.1 mph - 0.03 in Snow Light Snow
6:59 PM 12.2 °F 1.7 °F 12.2 °F 100% 30.48 in 1.2 mi WSW 6.9 mph - 0.00 in Snow Light Snow
7:02 PM 12.2 °F 2.9 °F 10.4 °F 92% 30.48 in 1.5 mi WSW 5.8 mph - 0.00 in Snow Light Snow
7:09 PM 15.8 °F 4.2 °F 10.4 °F 79% 30.48 in 3.0 mi WNW 9.2 mph - 0.00 in Snow Light Snow
7:24 PM 15.8 °F 2.1 °F 6.8 °F 68% 30.48 in 9.0 mi WNW 12.7 mph - 0.00 in   Overcast
7:53 PM 16.0 °F 2.3 °F 7.0 °F 68% 30.53 in 10.0 mi WNW 12.7 mph 20.7 mph 0.00 in   Mostly Cloudy
8:53 PM 15.1 °F -0.1 °F 6.1 °F 68% 30.53 in 10.0 mi West 15.0 mph - 0.00 in   Overcast
9:40 PM 14.0 °F 2.0 °F 5.0 °F 67% 30.49 in 10.0 mi WNW 9.2 mph - N/A   Overcast
9:53 PM 12.9 °F -3.9 °F 6.1 °F 74% 30.53 in 8.0 mi West 17.3 mph 21.9 mph N/A   Overcast
10:30 PM 12.2 °F -2.5 °F 6.8 °F 79% 30.49 in 2.5 mi West 12.7 mph - 0.00 in Snow Light Snow
10:37 PM 12.2 °F -3.1 °F 6.8 °F 79% 30.49 in 3.0 mi West 13.8 mph - 0.00 in Snow Light Snow
10:53 PM 12.0 °F -5.6 °F 6.1 °F 77% 30.53 in 4.0 mi West 18.4 mph - 0.00 in Snow Light Snow
11:31 PM 12.2 °F -3.1 °F 6.8 °F 79% 30.48 in 1.8 mi West 13.8 mph - 0.00 in Snow Light Snow
11:43 PM 12.2 °F -4.3 °F 6.8 °F 79% 30.48 in 3.0 mi West 16.1 mph - 0.00 in Snow Light Snow
11:53 PM 12.0 °F -2.0 °F 5.0 °F 73% 30.53 in 10.0 mi West 11.5 mph 20.7 mph 0.00 in   Overcast